AEE832 LGAV-EDDF

Flight info

Callsign AEE832
Flight time 2h 29m
Altitude 34000
Route KOR UL53 ELVAS DCT TUMBO DCT OVVER DCT RODON DCT NERRA DCT SIRMI DCT SIMBA DCT AKINI T161 DEBHI DEBHI1C
Aircraft A320/M-SDE3FGHIRWY/LB1

Departure

Time 2026-04-15 12:57
Airport Athens Eleftherios Venizelos International Airport (LGAV)

Arrival

Time 2026-04-15 15:26
Airport Frankfurt Main Airport (EDDF)
Time Latitude Longitude Altitude Speed Heading
2026-04-15 12:15 37.93798 23.95013 301 ft 0 kts 307°
2026-04-15 12:44 37.93794 23.95020 300 ft 4 kts 307°
2026-04-15 12:44 37.93777 23.95047 301 ft 4 kts 307°
2026-04-15 12:44 37.93762 23.95075 303 ft 4 kts 292°
2026-04-15 12:44 37.93758 23.95105 300 ft 4 kts 246°
2026-04-15 12:45 37.93765 23.95118 300 ft 0 kts 217°
2026-04-15 12:48 37.93763 23.95116 300 ft 1 kts 217°
2026-04-15 12:48 37.93757 23.95110 304 ft 0 kts 217°
2026-04-15 12:48 37.93748 23.95102 302 ft 3 kts 216°
2026-04-15 12:49 37.93732 23.95107 300 ft 4 kts 161°
2026-04-15 12:49 37.93697 23.95141 300 ft 8 kts 147°
2026-04-15 12:49 37.93630 23.95119 300 ft 13 kts 218°
2026-04-15 12:49 37.93550 23.95040 301 ft 17 kts 215°
2026-04-15 12:50 37.93450 23.94947 301 ft 18 kts 217°
2026-04-15 12:50 37.93345 23.94848 303 ft 19 kts 217°
2026-04-15 12:50 37.93235 23.94742 303 ft 21 kts 217°
2026-04-15 12:50 37.93118 23.94630 303 ft 22 kts 218°
2026-04-15 12:51 37.92996 23.94516 302 ft 23 kts 216°
2026-04-15 12:51 37.92886 23.94403 302 ft 16 kts 243°
2026-04-15 12:51 37.92930 23.94276 301 ft 17 kts 307°
2026-04-15 12:51 37.93008 23.94147 301 ft 20 kts 308°
2026-04-15 12:52 37.93096 23.94001 303 ft 22 kts 299°
2026-04-15 12:52 37.93188 23.93846 301 ft 23 kts 307°
2026-04-15 12:52 37.93290 23.93676 301 ft 25 kts 307°
2026-04-15 12:52 37.93397 23.93495 300 ft 22 kts 307°
2026-04-15 12:53 37.93402 23.93360 299 ft 18 kts 217°
2026-04-15 12:53 37.93297 23.93261 299 ft 20 kts 216°
2026-04-15 12:53 37.93182 23.93152 299 ft 22 kts 217°
2026-04-15 12:53 37.93059 23.93033 298 ft 23 kts 216°
2026-04-15 12:54 37.92928 23.92910 301 ft 24 kts 217°
2026-04-15 12:54 37.92793 23.92782 302 ft 25 kts 217°
2026-04-15 12:54 37.92654 23.92647 301 ft 26 kts 217°
2026-04-15 12:54 37.92508 23.92510 301 ft 27 kts 216°
2026-04-15 12:55 37.92356 23.92367 301 ft 28 kts 217°
2026-04-15 12:55 37.92200 23.92220 304 ft 22 kts 216°
2026-04-15 12:55 37.92109 23.92111 303 ft 17 kts 256°
2026-04-15 12:55 37.92161 23.91986 305 ft 17 kts 306°
2026-04-15 12:56 37.92254 23.91993 304 ft 16 kts 36°
2026-04-15 12:56 37.92376 23.92111 305 ft 38 kts 37°
2026-04-15 12:56 37.92761 23.92477 301 ft 98 kts 37°
2026-04-15 12:56 37.93440 23.93120 296 ft 143 kts 37°
2026-04-15 12:57 37.94301 23.93934 536 ft 157 kts 39°
2026-04-15 12:57 37.95158 23.94741 1244 ft 153 kts 36°
2026-04-15 12:57 37.96032 23.95536 1845 ft 157 kts 34°
2026-04-15 12:57 37.96952 23.96348 2254 ft 169 kts 34°
2026-04-15 12:58 37.97969 23.97229 2555 ft 185 kts 34°
2026-04-15 12:58 37.99071 23.98227 2794 ft 205 kts 36°
2026-04-15 12:58 38.00287 23.99359 3061 ft 229 kts 37°
2026-04-15 12:58 38.01597 24.00582 3701 ft 238 kts 38°
2026-04-15 12:59 38.04341 24.03129 5145 ft 252 kts 38°
2026-04-15 12:59 38.06024 24.04026 5592 ft 275 kts
2026-04-15 12:59 38.07923 24.03779 6256 ft 286 kts 339°
2026-04-15 13:00 38.09533 24.02296 6944 ft 292 kts 306°
2026-04-15 13:00 38.10301 23.99949 7650 ft 290 kts 273°
2026-04-15 13:00 38.10298 23.97396 8421 ft 290 kts 265°
2026-04-15 13:00 38.10220 23.94838 9214 ft 291 kts 265°
2026-04-15 13:01 38.10137 23.92263 9973 ft 293 kts 265°
2026-04-15 13:01 38.10053 23.89620 10358 ft 310 kts 265°
2026-04-15 13:01 38.09966 23.86788 10487 ft 332 kts 265°
2026-04-15 13:01 38.09876 23.83765 10622 ft 352 kts 265°
2026-04-15 13:02 38.09790 23.80669 11070 ft 360 kts 265°
2026-04-15 13:02 38.09703 23.77482 11733 ft 361 kts 265°
2026-04-15 13:02 38.09616 23.74300 12473 ft 360 kts 264°
2026-04-15 13:02 38.09526 23.71126 13193 ft 359 kts 264°
2026-04-15 13:03 38.09434 23.67964 13903 ft 359 kts 263°
2026-04-15 13:03 38.09342 23.64795 14441 ft 360 kts 264°
2026-04-15 13:03 38.09247 23.61601 14957 ft 363 kts 264°
2026-04-15 13:03 38.09149 23.58380 15425 ft 367 kts 264°
2026-04-15 13:04 38.09050 23.55167 15877 ft 371 kts 265°
2026-04-15 13:04 38.08947 23.51877 16338 ft 375 kts 265°
2026-04-15 13:04 38.08843 23.48549 16812 ft 379 kts 265°
2026-04-15 13:04 38.08739 23.45191 17274 ft 383 kts 266°
2026-04-15 13:05 38.08635 23.41793 17797 ft 387 kts 266°
2026-04-15 13:05 38.08527 23.38368 18267 ft 391 kts 266°
2026-04-15 13:05 38.08415 23.34900 18707 ft 395 kts 266°
2026-04-15 13:05 38.08302 23.31411 19163 ft 397 kts 266°
2026-04-15 13:06 38.08188 23.27892 19624 ft 400 kts 266°
2026-04-15 13:06 38.08073 23.24408 20083 ft 402 kts 266°
2026-04-15 13:06 38.07955 23.20857 20542 ft 404 kts 266°
2026-04-15 13:06 38.07835 23.17287 20984 ft 406 kts 266°
2026-04-15 13:07 38.07713 23.13701 21406 ft 408 kts 265°
2026-04-15 13:07 38.07590 23.10095 21831 ft 410 kts 265°
2026-04-15 13:07 38.07469 23.06473 22222 ft 412 kts 265°
2026-04-15 13:07 38.07346 23.02833 22612 ft 414 kts 265°
2026-04-15 13:08 38.07218 22.99174 22997 ft 416 kts 265°
2026-04-15 13:08 38.07087 22.95500 23372 ft 418 kts 265°
2026-04-15 13:08 38.06956 22.91862 23732 ft 420 kts 265°
2026-04-15 13:08 38.06822 22.88153 24041 ft 421 kts 265°
2026-04-15 13:09 38.06685 22.84432 24356 ft 423 kts 264°
2026-04-15 13:09 38.06544 22.80696 24672 ft 424 kts 264°
2026-04-15 13:09 38.06407 22.76950 25000 ft 426 kts 265°
2026-04-15 13:09 38.06554 22.73173 25294 ft 432 kts 275°
2026-04-15 13:10 38.07225 22.69433 25588 ft 438 kts 285°
2026-04-15 13:10 38.08426 22.65863 25967 ft 443 kts 295°
2026-04-15 13:10 38.10097 22.62563 26403 ft 445 kts 301°
2026-04-15 13:10 38.11845 22.59388 26835 ft 444 kts 301°
2026-04-15 13:11 38.13603 22.56178 27290 ft 442 kts 300°
2026-04-15 13:11 38.15353 22.52968 27733 ft 441 kts 300°
2026-04-15 13:11 38.17096 22.49764 28192 ft 440 kts 300°
2026-04-15 13:11 38.18834 22.46574 28646 ft 439 kts 300°
2026-04-15 13:12 38.20571 22.43386 29090 ft 439 kts 300°
2026-04-15 13:12 38.22307 22.40197 29503 ft 438 kts 300°
2026-04-15 13:12 38.24036 22.37013 29944 ft 437 kts 299°
2026-04-15 13:12 38.25736 22.33873 30360 ft 436 kts 299°
2026-04-15 13:13 38.27456 22.30698 30760 ft 435 kts 299°
2026-04-15 13:13 38.29164 22.27541 31189 ft 432 kts 299°
2026-04-15 13:13 38.30865 22.24394 31619 ft 430 kts 299°
2026-04-15 13:13 38.32562 22.21258 32025 ft 429 kts 299°
2026-04-15 13:14 38.34251 22.18139 32439 ft 427 kts 299°
2026-04-15 13:14 38.35935 22.15024 32895 ft 425 kts 299°
2026-04-15 13:14 38.37604 22.11930 33373 ft 423 kts 298°
2026-04-15 13:14 38.39269 22.08842 33802 ft 422 kts 298°
2026-04-15 13:15 38.40926 22.05764 34047 ft 421 kts 298°
2026-04-15 13:15 38.42567 22.02703 34088 ft 427 kts 297°
2026-04-15 13:15 38.45965 21.96345 34083 ft 438 kts 298°
2026-04-15 13:16 38.49413 21.89908 34074 ft 440 kts 298°
2026-04-15 13:16 38.53300 21.83811 34075 ft 451 kts 311°
2026-04-15 13:17 38.58443 21.79047 34074 ft 459 kts 320°
2026-04-15 13:17 38.63685 21.74516 34055 ft 458 kts 319°
2026-04-15 13:18 38.68952 21.69925 34062 ft 458 kts 319°
2026-04-15 13:18 38.74228 21.65326 34060 ft 459 kts 319°
2026-04-15 13:19 38.79512 21.60731 34060 ft 459 kts 319°
2026-04-15 13:19 38.84758 21.56151 34061 ft 459 kts 319°
2026-04-15 13:20 38.90033 21.51530 34057 ft 459 kts 319°
2026-04-15 13:20 38.95303 21.46914 34061 ft 458 kts 319°
2026-04-15 13:21 39.00571 21.42294 34066 ft 458 kts 319°
2026-04-15 13:21 39.05797 21.37695 34054 ft 458 kts 319°
2026-04-15 13:22 39.11059 21.33074 34064 ft 458 kts 319°
2026-04-15 13:22 39.16316 21.28436 34061 ft 458 kts 319°
2026-04-15 13:23 39.21567 21.23782 34056 ft 458 kts 319°
2026-04-15 13:23 39.26826 21.19122 34052 ft 459 kts 319°
2026-04-15 13:24 39.32048 21.14497 34072 ft 459 kts 319°
2026-04-15 13:24 39.37316 21.09822 34044 ft 460 kts 319°
2026-04-15 13:25 39.42594 21.05115 34067 ft 462 kts 319°
2026-04-15 13:25 39.47885 21.00396 34067 ft 462 kts 319°
2026-04-15 13:26 39.53188 20.95662 34097 ft 464 kts 319°
2026-04-15 13:26 39.58459 20.90934 34115 ft 464 kts 319°
2026-04-15 13:27 39.63766 20.86167 34123 ft 464 kts 319°
2026-04-15 13:27 39.69075 20.81397 34148 ft 464 kts 318°
2026-04-15 13:28 39.74383 20.76624 34147 ft 464 kts 317°
2026-04-15 13:28 39.79641 20.71867 34135 ft 464 kts 317°
2026-04-15 13:29 39.84945 20.67064 34122 ft 465 kts 317°
2026-04-15 13:29 39.90259 20.62264 34115 ft 464 kts 317°
2026-04-15 13:30 39.95551 20.57466 34124 ft 463 kts 317°
2026-04-15 13:30 40.00788 20.52702 34137 ft 462 kts 317°
2026-04-15 13:31 40.06042 20.47903 34123 ft 460 kts 317°
2026-04-15 13:31 40.11250 20.43043 34125 ft 459 kts 316°
2026-04-15 13:32 40.16360 20.38068 34119 ft 457 kts 315°
2026-04-15 13:32 40.21411 20.33127 34122 ft 456 kts 316°
2026-04-15 13:33 40.26498 20.28195 34117 ft 454 kts 316°
2026-04-15 13:33 40.31577 20.23291 34104 ft 454 kts 316°
2026-04-15 13:34 40.36652 20.18368 34094 ft 454 kts 316°
2026-04-15 13:34 40.41724 20.13428 34107 ft 454 kts 316°
2026-04-15 13:35 40.46768 20.08508 34078 ft 455 kts 316°
2026-04-15 13:35 40.51861 20.03531 34071 ft 457 kts 316°
2026-04-15 13:36 40.56966 19.98547 34071 ft 457 kts 316°
2026-04-15 13:36 40.62078 19.93550 34073 ft 458 kts 316°
2026-04-15 13:37 40.67143 19.88571 34071 ft 457 kts 316°
2026-04-15 13:37 40.72237 19.83542 34072 ft 457 kts 316°
2026-04-15 13:38 40.77335 19.78513 34067 ft 458 kts 315°
2026-04-15 13:38 40.82453 19.73450 34036 ft 461 kts 315°
2026-04-15 13:39 40.87568 19.68388 34049 ft 464 kts 315°
2026-04-15 13:39 40.92738 19.63266 34049 ft 465 kts 315°
2026-04-15 13:40 40.97922 19.58124 34049 ft 466 kts 315°
2026-04-15 13:40 41.03110 19.52950 34051 ft 467 kts 315°
2026-04-15 13:41 41.08267 19.47806 34051 ft 467 kts 315°
2026-04-15 13:41 41.13464 19.42613 34043 ft 469 kts 316°
2026-04-15 13:42 41.18681 19.37385 34040 ft 471 kts 316°
2026-04-15 13:42 41.23911 19.32131 34036 ft 472 kts 316°
2026-04-15 13:43 41.29115 19.26897 34049 ft 473 kts 316°
2026-04-15 13:43 41.34360 19.21607 34055 ft 473 kts 316°
2026-04-15 13:44 41.39610 19.16300 34061 ft 474 kts 316°
2026-04-15 13:44 41.44861 19.10989 34075 ft 474 kts 317°
2026-04-15 13:45 41.50061 19.05664 34056 ft 475 kts 316°
2026-04-15 13:47 41.70841 18.83747 34077 ft 475 kts 316°
2026-04-15 13:47 41.75998 18.78320 34078 ft 474 kts 316°
2026-04-15 13:48 41.81182 18.72838 34066 ft 475 kts 317°
2026-04-15 13:48 41.86367 18.67338 34054 ft 475 kts 317°
2026-04-15 13:49 41.91546 18.61826 34056 ft 475 kts 317°
2026-04-15 13:49 41.96690 18.56343 34081 ft 475 kts 317°
2026-04-15 13:50 42.01864 18.50830 34083 ft 474 kts 317°
2026-04-15 13:50 42.07028 18.45305 34081 ft 474 kts 317°
2026-04-15 13:51 42.12193 18.39770 34103 ft 474 kts 317°
2026-04-15 13:51 42.17306 18.34290 34103 ft 472 kts 317°
2026-04-15 13:52 42.22424 18.28774 34105 ft 470 kts 317°
2026-04-15 13:52 42.27528 18.23264 34102 ft 469 kts 317°
2026-04-15 13:53 42.32619 18.17767 34105 ft 468 kts 317°
2026-04-15 13:53 42.37698 18.12264 34098 ft 468 kts 317°
2026-04-15 13:54 42.42737 18.06797 34108 ft 467 kts 318°
2026-04-15 13:54 42.47803 18.01290 34099 ft 466 kts 317°
2026-04-15 13:55 42.52852 17.95777 34100 ft 466 kts 317°
2026-04-15 13:55 42.57907 17.90258 34100 ft 466 kts 317°
2026-04-15 13:56 42.62926 17.84771 34105 ft 466 kts 319°
2026-04-15 13:56 42.67968 17.79243 34112 ft 465 kts 319°
2026-04-15 13:57 42.72997 17.73704 34111 ft 465 kts 319°
2026-04-15 13:57 42.78021 17.68171 34099 ft 465 kts 319°
2026-04-15 13:58 42.83014 17.62662 34102 ft 465 kts 319°
2026-04-15 13:58 42.88036 17.57103 34104 ft 465 kts 319°
2026-04-15 13:59 42.93094 17.51624 34104 ft 464 kts 322°
2026-04-15 13:59 42.97459 17.47357 34094 ft 464 kts 324°
2026-04-15 14:00 43.03643 17.41547 34090 ft 464 kts 324°
2026-04-15 14:00 43.08919 17.36469 34090 ft 463 kts 324°
2026-04-15 14:01 43.15876 17.29627 34088 ft 462 kts 323°
2026-04-15 14:02 43.21091 17.24480 34088 ft 462 kts 323°
2026-04-15 14:02 43.26308 17.19336 34086 ft 462 kts 323°
2026-04-15 14:03 43.31492 17.14233 34089 ft 462 kts 323°
2026-04-15 14:03 43.36710 17.09086 34090 ft 462 kts 324°
2026-04-15 14:04 43.41921 17.03926 34104 ft 461 kts 324°
2026-04-15 14:04 43.47127 16.98765 34097 ft 461 kts 324°
2026-04-15 14:05 43.52331 16.93602 34101 ft 461 kts 324°
2026-04-15 14:05 43.57493 16.88454 34098 ft 461 kts 324°
2026-04-15 14:06 43.62691 16.83256 34104 ft 461 kts 324°
2026-04-15 14:06 43.67888 16.78050 34107 ft 462 kts 324°
2026-04-15 14:07 43.73090 16.72832 34107 ft 462 kts 324°
2026-04-15 14:07 43.78291 16.67613 34106 ft 462 kts 324°
2026-04-15 14:08 43.83449 16.62403 34112 ft 462 kts 324°
2026-04-15 14:08 43.88638 16.57165 34117 ft 461 kts 324°
2026-04-15 14:09 43.93821 16.51931 34115 ft 460 kts 324°
2026-04-15 14:09 43.98996 16.46689 34116 ft 461 kts 323°
2026-04-15 14:10 44.04161 16.41425 34124 ft 460 kts 323°
2026-04-15 14:10 44.09292 16.36201 34129 ft 460 kts 323°
2026-04-15 14:11 44.14460 16.30961 34126 ft 459 kts 326°
2026-04-15 14:11 44.20040 16.26641 34126 ft 459 kts 332°
2026-04-15 14:12 44.25680 16.22453 34123 ft 460 kts 331°
2026-04-15 14:12 44.31284 16.18276 34144 ft 459 kts 331°
2026-04-15 14:13 44.36916 16.14070 34147 ft 459 kts 330°
2026-04-15 14:13 44.42543 16.09856 34160 ft 459 kts 330°
2026-04-15 14:14 44.48168 16.05646 34186 ft 457 kts 330°
2026-04-15 14:14 44.53730 16.01470 34189 ft 456 kts 330°
2026-04-15 14:15 44.59307 15.97277 34214 ft 453 kts 330°
2026-04-15 14:15 44.64851 15.93101 34208 ft 451 kts 330°
2026-04-15 14:16 44.70363 15.88935 34216 ft 449 kts 329°
2026-04-15 14:16 44.75807 15.84810 34224 ft 447 kts 329°
2026-04-15 14:17 44.81277 15.80656 34215 ft 446 kts 329°
2026-04-15 14:17 44.86740 15.76496 34220 ft 446 kts 329°
2026-04-15 14:18 44.92199 15.72337 34224 ft 446 kts 329°
2026-04-15 14:18 44.97623 15.68201 34219 ft 446 kts 329°
2026-04-15 14:19 45.03081 15.64018 34219 ft 446 kts 329°
2026-04-15 14:19 45.08540 15.59825 34220 ft 446 kts 329°
2026-04-15 14:20 45.13996 15.55625 34221 ft 446 kts 328°
2026-04-15 14:20 45.19411 15.51455 34227 ft 446 kts 328°
2026-04-15 14:21 45.24853 15.47250 34226 ft 445 kts 328°
2026-04-15 14:21 45.30291 15.43044 34221 ft 445 kts 328°
2026-04-15 14:22 45.35726 15.38830 34230 ft 444 kts 328°
2026-04-15 14:22 45.41113 15.34640 34231 ft 443 kts 328°
2026-04-15 14:23 45.46521 15.30427 34234 ft 443 kts 328°
2026-04-15 14:23 45.51920 15.26212 34231 ft 442 kts 328°
2026-04-15 14:24 45.57277 15.22015 34234 ft 441 kts 328°
2026-04-15 14:24 45.62652 15.17800 34231 ft 440 kts 328°
2026-04-15 14:25 45.68011 15.13592 34224 ft 439 kts 328°
2026-04-15 14:25 45.73360 15.09374 34220 ft 439 kts 327°
2026-04-15 14:26 45.78710 15.05152 34204 ft 439 kts 328°
2026-04-15 14:26 45.84068 15.00911 34194 ft 440 kts 328°
2026-04-15 14:27 45.89437 14.96655 34190 ft 441 kts 328°
2026-04-15 14:27 45.94775 14.92406 34192 ft 442 kts 328°
2026-04-15 14:28 46.00150 14.88113 34205 ft 442 kts 328°
2026-04-15 14:28 46.05540 14.83817 34196 ft 443 kts 328°
2026-04-15 14:29 46.10896 14.79539 34189 ft 444 kts 329°
2026-04-15 14:29 46.16301 14.75197 34187 ft 445 kts 329°
2026-04-15 14:30 46.21711 14.70855 34182 ft 445 kts 329°
2026-04-15 14:30 46.27123 14.66499 34195 ft 445 kts 330°
2026-04-15 14:31 46.32492 14.62163 34199 ft 445 kts 330°
2026-04-15 14:31 46.37894 14.57788 34198 ft 445 kts 331°
2026-04-15 14:32 46.43283 14.53409 34221 ft 444 kts 331°
2026-04-15 14:32 46.48661 14.49033 34231 ft 442 kts 332°
2026-04-15 14:33 46.53990 14.44687 34232 ft 442 kts 332°
2026-04-15 14:33 46.59346 14.40314 34232 ft 442 kts 332°
2026-04-15 14:34 46.64698 14.35944 34227 ft 441 kts 332°
2026-04-15 14:34 46.70043 14.31569 34216 ft 441 kts 333°
2026-04-15 14:35 46.75343 14.27207 34221 ft 440 kts 333°
2026-04-15 14:35 46.80665 14.22816 34221 ft 440 kts 332°
2026-04-15 14:36 46.85991 14.18407 34216 ft 439 kts 332°
2026-04-15 14:36 46.91305 14.14011 34213 ft 439 kts 333°
2026-04-15 14:37 46.96591 14.09622 34213 ft 439 kts 333°
2026-04-15 14:37 47.01898 14.05205 34204 ft 438 kts 334°
2026-04-15 14:38 47.07189 14.00792 34210 ft 437 kts 334°
2026-04-15 14:38 47.12464 13.96386 34206 ft 436 kts 334°
2026-04-15 14:39 47.17693 13.92001 34204 ft 435 kts 334°
2026-04-15 14:39 47.22949 13.87591 34202 ft 435 kts 334°
2026-04-15 14:40 47.28196 13.83189 34188 ft 433 kts 334°
2026-04-15 14:40 47.33429 13.78781 34163 ft 432 kts 335°
2026-04-15 14:41 47.38631 13.74368 34188 ft 431 kts 335°
2026-04-15 14:41 47.43826 13.69963 34194 ft 429 kts 336°
2026-04-15 14:42 47.48961 13.65602 34194 ft 428 kts 335°
2026-04-15 14:42 47.54020 13.60951 34194 ft 435 kts 324°
2026-04-15 14:43 47.58089 13.54191 34178 ft 441 kts 316°
2026-04-15 14:43 47.62031 13.47212 34169 ft 441 kts 316°
2026-04-15 14:44 47.65932 13.40282 34194 ft 440 kts 316°
2026-04-15 14:44 47.69850 13.33334 34203 ft 438 kts 316°
2026-04-15 14:45 47.73752 13.26416 34208 ft 436 kts 316°
2026-04-15 14:45 47.77605 13.19547 34209 ft 435 kts 316°
2026-04-15 14:46 47.81473 13.12634 34190 ft 434 kts 316°
2026-04-15 14:46 47.85344 13.05721 34199 ft 434 kts 316°
2026-04-15 14:47 47.89178 12.98851 34202 ft 433 kts 316°
2026-04-15 14:47 47.93027 12.91934 34217 ft 434 kts 316°
2026-04-15 14:48 47.96869 12.85002 34212 ft 433 kts 315°
2026-04-15 14:48 48.00699 12.78075 34205 ft 432 kts 315°
2026-04-15 14:49 48.04511 12.71159 34214 ft 430 kts 315°
2026-04-15 14:49 48.08279 12.64299 34216 ft 430 kts 315°
2026-04-15 14:50 48.12074 12.57387 34211 ft 429 kts 315°
2026-04-15 14:50 48.15864 12.50473 34214 ft 429 kts 315°
2026-04-15 14:51 48.19644 12.43553 34213 ft 429 kts 315°
2026-04-15 14:51 48.23390 12.36671 34213 ft 429 kts 315°
2026-04-15 14:52 48.27156 12.29743 34210 ft 428 kts 315°
2026-04-15 14:52 48.30916 12.22788 34210 ft 429 kts 315°
2026-04-15 14:53 48.34612 12.15934 34217 ft 429 kts 315°
2026-04-15 14:53 48.38140 12.09395 34202 ft 428 kts 314°
2026-04-15 14:54 48.41886 12.02436 34214 ft 428 kts 314°
2026-04-15 14:54 48.45629 11.95460 34227 ft 427 kts 314°
2026-04-15 14:55 48.49359 11.88489 34234 ft 427 kts 314°
2026-04-15 14:55 48.53057 11.81568 34227 ft 426 kts 314°
2026-04-15 14:56 48.56771 11.74585 34206 ft 426 kts 313°
2026-04-15 14:56 48.60473 11.67600 34216 ft 426 kts 313°
2026-04-15 14:57 48.64178 11.60604 34226 ft 426 kts 313°
2026-04-15 14:57 48.67839 11.53660 34229 ft 426 kts 313°
2026-04-15 14:58 48.71541 11.46620 34224 ft 426 kts 313°
2026-04-15 14:58 48.75228 11.39597 34212 ft 426 kts 312°
2026-04-15 14:59 48.78916 11.32560 34216 ft 426 kts 312°
2026-04-15 14:59 48.82592 11.25523 34216 ft 426 kts 312°
2026-04-15 15:00 48.86562 11.19027 34223 ft 421 kts 321°
2026-04-15 15:00 48.90889 11.13027 34226 ft 421 kts 321°
2026-04-15 15:01 48.95206 11.06996 34236 ft 421 kts 321°
2026-04-15 15:01 48.99486 11.00991 34221 ft 421 kts 320°
2026-04-15 15:02 49.03797 10.94940 34249 ft 422 kts 320°
2026-04-15 15:02 49.08110 10.88866 34259 ft 421 kts 320°
2026-04-15 15:02 49.10262 10.85829 34109 ft 422 kts 320°
2026-04-15 15:03 49.12417 10.82790 33851 ft 422 kts 320°
2026-04-15 15:03 49.14573 10.79750 33589 ft 422 kts 320°
2026-04-15 15:03 49.16701 10.76739 33083 ft 424 kts 319°
2026-04-15 15:03 49.18869 10.73664 32196 ft 428 kts 319°
2026-04-15 15:04 49.21039 10.70521 31293 ft 432 kts 317°
2026-04-15 15:04 49.23182 10.67249 30252 ft 439 kts 316°
2026-04-15 15:04 49.25316 10.63868 29103 ft 444 kts 315°
2026-04-15 15:04 49.27448 10.60426 28047 ft 447 kts 314°
2026-04-15 15:05 49.29598 10.56941 26827 ft 453 kts 314°
2026-04-15 15:05 49.31758 10.53459 25729 ft 458 kts 314°
2026-04-15 15:05 49.33948 10.49959 25026 ft 452 kts 314°
2026-04-15 15:05 49.36079 10.46432 24206 ft 449 kts 309°
2026-04-15 15:06 49.39645 10.38738 23258 ft 438 kts 305°
2026-04-15 15:06 49.41392 10.34925 22816 ft 436 kts 305°
2026-04-15 15:06 49.43137 10.31123 22363 ft 433 kts 304°
2026-04-15 15:07 49.44869 10.27346 21943 ft 431 kts 304°
2026-04-15 15:07 49.46559 10.23639 21505 ft 429 kts 304°
2026-04-15 15:07 49.48265 10.19884 21072 ft 427 kts 304°
2026-04-15 15:07 49.49956 10.16151 20639 ft 425 kts 304°
2026-04-15 15:08 49.51623 10.12471 20311 ft 412 kts 304°
2026-04-15 15:08 49.53231 10.08918 20193 ft 396 kts 303°
2026-04-15 15:08 49.54774 10.05503 20069 ft 382 kts 303°
2026-04-15 15:08 49.56265 10.02200 19944 ft 368 kts 303°
2026-04-15 15:09 49.57699 9.99023 19820 ft 355 kts 303°
2026-04-15 15:09 49.59064 9.95992 19699 ft 343 kts 303°
2026-04-15 15:09 49.60401 9.93017 19487 ft 334 kts 303°
2026-04-15 15:09 49.61710 9.90099 19256 ft 328 kts 303°
2026-04-15 15:10 49.62995 9.87227 19026 ft 324 kts 303°
2026-04-15 15:10 49.64270 9.84368 18788 ft 323 kts 303°
2026-04-15 15:10 49.65543 9.81515 18551 ft 322 kts 303°
2026-04-15 15:10 49.66813 9.78675 18300 ft 321 kts 303°
2026-04-15 15:11 49.68076 9.75849 18020 ft 320 kts 303°
2026-04-15 15:11 49.69337 9.73019 17752 ft 318 kts 303°
2026-04-15 15:11 49.70571 9.70242 17412 ft 317 kts 303°
2026-04-15 15:11 49.71819 9.67436 16958 ft 318 kts 303°
2026-04-15 15:12 49.73080 9.64602 16493 ft 328 kts 303°
2026-04-15 15:12 49.74423 9.61577 15984 ft 347 kts 303°
2026-04-15 15:12 49.75780 9.58526 15709 ft 339 kts 303°
2026-04-15 15:12 49.77089 9.55580 15578 ft 327 kts 303°
2026-04-15 15:13 49.78351 9.52726 15464 ft 316 kts 303°
2026-04-15 15:13 49.79573 9.49957 15275 ft 308 kts 303°
2026-04-15 15:13 49.80766 9.47245 14779 ft 303 kts 302°
2026-04-15 15:13 49.81932 9.44594 14202 ft 300 kts 303°
2026-04-15 15:14 49.83106 9.41932 13591 ft 298 kts 303°
2026-04-15 15:14 49.84272 9.39292 12973 ft 295 kts 304°
2026-04-15 15:14 49.85648 9.36963 12354 ft 295 kts 324°
2026-04-15 15:14 49.87508 9.35661 11758 ft 295 kts 341°
2026-04-15 15:15 49.89483 9.34829 11291 ft 289 kts 343°
2026-04-15 15:15 49.91395 9.34085 10998 ft 278 kts 344°
2026-04-15 15:15 49.93237 9.33379 10684 ft 268 kts 344°
2026-04-15 15:15 49.95011 9.32698 10293 ft 264 kts 344°
2026-04-15 15:16 49.96783 9.32020 9864 ft 261 kts 344°
2026-04-15 15:16 49.98533 9.31346 9410 ft 258 kts 344°
2026-04-15 15:16 50.00262 9.30673 8965 ft 255 kts 344°
2026-04-15 15:16 50.01976 9.29997 8526 ft 253 kts 344°
2026-04-15 15:17 50.03672 9.29321 8099 ft 252 kts 344°
2026-04-15 15:17 50.05388 9.28633 7672 ft 256 kts 344°
2026-04-15 15:17 50.07103 9.27915 7233 ft 254 kts 339°
2026-04-15 15:17 50.08552 9.26454 6831 ft 247 kts 308°
2026-04-15 15:18 50.09342 9.24174 6411 ft 242 kts 287°
2026-04-15 15:18 50.09834 9.21701 6166 ft 238 kts 284°
2026-04-15 15:18 50.10281 9.19217 6010 ft 238 kts 284°
2026-04-15 15:18 50.10722 9.16727 5860 ft 238 kts 284°
2026-04-15 15:19 50.11164 9.14245 5703 ft 238 kts 284°
2026-04-15 15:19 50.11606 9.11763 5548 ft 238 kts 284°
2026-04-15 15:19 50.12048 9.09287 5392 ft 237 kts 284°
2026-04-15 15:19 50.12449 9.07025 5221 ft 237 kts 284°
2026-04-15 15:20 50.12882 9.04549 4945 ft 236 kts 284°
2026-04-15 15:20 50.13310 9.02083 4657 ft 235 kts 284°
2026-04-15 15:20 50.13518 8.99613 4375 ft 232 kts 263°
2026-04-15 15:20 50.13102 8.97226 4166 ft 228 kts 248°
2026-04-15 15:21 50.12554 8.94890 4048 ft 231 kts 248°
2026-04-15 15:21 50.12007 8.92531 4002 ft 231 kts 248°
2026-04-15 15:21 50.11461 8.90197 4001 ft 223 kts 249°
2026-04-15 15:21 50.10953 8.88032 3997 ft 209 kts 248°
2026-04-15 15:22 50.10470 8.85977 3950 ft 197 kts 249°
2026-04-15 15:22 50.10002 8.83988 3774 ft 192 kts 248°
2026-04-15 15:22 50.09549 8.82065 3530 ft 187 kts 248°
2026-04-15 15:22 50.09105 8.80183 3284 ft 183 kts 249°
2026-04-15 15:23 50.08670 8.78338 3043 ft 179 kts 248°
2026-04-15 15:23 50.08246 8.76542 2798 ft 171 kts 248°
2026-04-15 15:23 50.07847 8.74856 2562 ft 166 kts 248°
2026-04-15 15:23 50.07450 8.73178 2366 ft 163 kts 248°
2026-04-15 15:24 50.07057 8.71516 2139 ft 164 kts 248°
2026-04-15 15:24 50.06660 8.69855 1911 ft 164 kts 248°
2026-04-15 15:24 50.06259 8.68178 1703 ft 169 kts 248°
2026-04-15 15:24 50.05882 8.66515 1489 ft 161 kts 248°
2026-04-15 15:25 50.05481 8.64872 1278 ft 164 kts 249°
2026-04-15 15:25 50.05078 8.63216 1036 ft 163 kts 248°
2026-04-15 15:25 50.04694 8.61597 833 ft 157 kts 249°
2026-04-15 15:25 50.04328 8.60024 619 ft 154 kts 249°
2026-04-15 15:26 50.03966 8.58489 409 ft 148 kts 247°
2026-04-15 15:26 50.03631 8.57087 359 ft 126 kts 247°
2026-04-15 15:26 50.03377 8.56026 352 ft 81 kts 250°
2026-04-15 15:26 50.03304 8.55570 347 ft 17 kts 284°
2026-04-15 15:27 50.03322 8.55416 350 ft 14 kts 280°
2026-04-15 15:27 50.03341 8.55254 346 ft 16 kts 279°
2026-04-15 15:27 50.03361 8.55063 342 ft 19 kts 279°
2026-04-15 15:27 50.03344 8.54850 337 ft 22 kts 249°
2026-04-15 15:28 50.03290 8.54628 333 ft 20 kts 250°
2026-04-15 15:28 50.03306 8.54486 335 ft 15 kts 334°
2026-04-15 15:28 50.03403 8.54429 337 ft 15 kts 337°
2026-04-15 15:28 50.03498 8.54373 349 ft 15 kts 340°
2026-04-15 15:29 50.03606 8.54311 344 ft 16 kts 340°
2026-04-15 15:29 50.03679 8.54405 347 ft 16 kts 69°
2026-04-15 15:29 50.03720 8.54574 353 ft 17 kts 69°
2026-04-15 15:29 50.03762 8.54752 348 ft 18 kts 70°
2026-04-15 15:30 50.03808 8.54942 353 ft 20 kts 69°
2026-04-15 15:30 50.03858 8.55153 356 ft 22 kts 70°
2026-04-15 15:30 50.03914 8.55384 357 ft 24 kts 70°
2026-04-15 15:30 50.03974 8.55636 355 ft 26 kts 69°
2026-04-15 15:31 50.04037 8.55903 351 ft 26 kts 69°
2026-04-15 15:31 50.04102 8.56175 357 ft 28 kts 70°
2026-04-15 15:31 50.04171 8.56463 358 ft 28 kts 70°
2026-04-15 15:31 50.04229 8.56710 361 ft 20 kts 70°
2026-04-15 15:32 50.04321 8.56820 360 ft 18 kts
2026-04-15 15:32 50.04452 8.56856 359 ft 18 kts 11°
2026-04-15 15:32 50.04509 8.56864 367 ft 3 kts 312°
2026-04-15 15:32 50.04520 8.56823 359 ft 5 kts 294°
2026-04-15 15:33 50.04538 8.56763 362 ft 3 kts 295°
2026-04-15 15:33 50.04545 8.56740 362 ft 3 kts 295°
2026-04-15 15:33 50.04548 8.56730 361 ft 0 kts 295°